Find USA 81

NORAD ID: 21949 Int'l Des: 1992-023 Owner: NRO Country: US operational
LEOCIRCULARPOLAR

Aktuelle Ansicht

3D-Globus wird geladen...

Über USA 81

Beschreibung wird geladen...

Nächste Überflüge

Passes for default location (London). Set your location on the main map for personalized predictions.

Höhenverlauf

Loading altitude history...

Zweizeiliger Elementsatz

1 21949U 92023A 26149.76290923 .00000190 00000-0 63106-4 0 9991
2 21949 85.0074 84.6397 0002563 100.8927 259.2554 14.32392311106391
Epoch: 29. Mai 2026 • Age: 20 hours

Aktueller Status

Höhe 786.1 km
Geschwindigkeit 7.46 km/s
Subsatellitenpunkt 8.03°N, 20.25°W
Startdatum 25. Apr. 1992
Alter 34 years
Typ military

Technische Details

Klassifizierung Payload
Masse 1450.00 kg
Trockenmasse 1200.00 kg
Gesamtmasse 1450.00 kg
Länge 0.50 m
Durchmesser 1.00 m
Spannweite 10.00 m
Form Cyl + Ant
Hersteller LMSC/MOTO
Bus-Typ NRO-T2
Phasenstatus In Orbit
Besitzer/Staat NRO/US

Most Searched